Time,TemperatureF,DewpointF,PressureIn,WindDirection,WindDirectionDegrees,WindSpeedMPH,WindSpeedGustMPH,Humidity,HourlyPrecipIn,Conditions,Clouds,dailyrainin,SoftwareType,DateUTC
2013-02-07 00:01:00,48.4,39.4,30.07,ESE,111,0.0,0.0,71,0.00,,OVC250,0.00,VWS V14.01,2013-02-07 06:01:00,
2013-02-07 00:06:00,48.2,39.2,30.07,ESE,111,0.0,0.0,71,0.00,,BKN250,0.00,VWS V14.01,2013-02-07 06:06:00,
2013-02-07 00:11:00,48.1,39.5,30.07,ESE,111,0.0,0.0,72,0.00,,BKN250,0.00,VWS V14.01,2013-02-07 06:11:00,
2013-02-07 00:16:00,48.1,39.5,30.07,ESE,111,0.0,0.0,72,0.00,,BKN250,0.00,VWS V14.01,2013-02-07 06:16:00,
2013-02-07 00:21:00,48.3,39.3,30.07,ESE,111,0.0,0.0,71,0.00,,BKN250,0.00,VWS V14.01,2013-02-07 06:21:00,
2013-02-07 00:26:00,48.4,39.1,30.07,ESE,109,0.0,0.0,70,0.00,,BKN250,0.00,VWS V14.01,2013-02-07 06:26:00,
2013-02-07 00:31:00,48.4,39.4,30.07,ESE,109,0.0,0.0,71,0.00,,BKN250,0.00,VWS V14.01,2013-02-07 06:31:00,
2013-02-07 00:36:00,48.6,39.3,30.07,ESE,123,0.0,1.0,70,0.00,,BKN250,0.00,VWS V14.01,2013-02-07 06:36:00,
2013-02-07 00:41:00,48.6,39.3,30.07,ESE,123,0.0,0.0,70,0.00,,BKN250,0.00,VWS V14.01,2013-02-07 06:41:00,
2013-02-07 00:46:00,48.4,39.4,30.07,ESE,123,0.0,0.0,71,0.00,,BKN250,0.00,VWS V14.01,2013-02-07 06:46:00,
2013-02-07 00:51:00,48.4,39.1,30.07,ESE,123,0.0,0.0,70,0.00,,BKN250,0.00,VWS V14.01,2013-02-07 06:51:00,
2013-02-07 00:56:00,48.6,39.3,30.07,ESE,123,0.0,0.0,70,0.00,,BKN250,0.00,VWS V14.01,2013-02-07 06:56:00,
2013-02-07 01:01:00,48.7,39.0,30.07,ESE,123,0.0,0.0,69,0.00,,BKN250,0.00,VWS V14.01,2013-02-07 07:01:00,
2013-02-07 01:06:00,48.7,39.0,30.07,ESE,123,0.0,0.0,69,0.00,,BKN250,0.00,VWS V14.01,2013-02-07 07:06:00,
2013-02-07 01:11:00,48.6,38.9,30.06,ESE,123,0.0,0.0,69,0.00,,BKN250,0.00,VWS V14.01,2013-02-07 07:11:00,
2013-02-07 01:16:00,48.5,38.8,30.06,ESE,121,0.0,0.0,69,0.00,,BKN250,0.00,VWS V14.01,2013-02-07 07:16:00,
2013-02-07 01:21:00,48.6,38.9,30.06,ESE,107,1.0,2.0,69,0.00,,BKN250,0.00,VWS V14.01,2013-02-07 07:21:00,
2013-02-07 01:26:00,48.6,38.9,30.06,ESE,115,1.0,2.0,69,0.00,,BKN250,0.00,VWS V14.01,2013-02-07 07:26:00,
2013-02-07 01:31:00,48.7,38.6,30.06,SE,125,0.0,0.0,68,0.00,,BKN250,0.00,VWS V14.01,2013-02-07 07:31:00,
2013-02-07 01:36:00,48.8,38.7,30.06,East,100,0.0,0.0,68,0.00,,BKN250,0.00,VWS V14.01,2013-02-07 07:36:00,
2013-02-07 01:41:00,49.0,38.5,30.06,ESE,106,0.0,1.0,67,0.00,,BKN250,0.00,VWS V14.01,2013-02-07 07:41:00,
2013-02-07 01:46:00,49.1,38.6,30.05,ESE,104,0.0,0.0,67,0.00,,BKN250,0.00,VWS V14.01,2013-02-07 07:46:00,
2013-02-07 01:51:00,49.3,38.4,30.05,East,101,0.0,0.0,66,0.00,,BKN250,0.00,VWS V14.01,2013-02-07 07:51:00,
2013-02-07 01:56:00,49.3,38.4,30.05,East,101,0.0,0.0,66,0.00,,BKN250,0.00,VWS V14.01,2013-02-07 07:56:00,
2013-02-07 02:01:00,49.1,38.2,30.05,East,101,0.0,0.0,66,0.00,,BKN250,0.00,VWS V14.01,2013-02-07 08:01:00,
2013-02-07 02:06:00,48.8,38.0,30.05,East,101,0.0,0.0,66,0.00,,BKN250,0.00,VWS V14.01,2013-02-07 08:06:00,
2013-02-07 02:11:00,48.4,38.3,30.05,SE,135,0.0,0.0,68,0.00,,BKN250,0.00,VWS V14.01,2013-02-07 08:11:00,
2013-02-07 02:16:00,47.9,38.2,30.05,ESE,123,2.0,2.0,69,0.00,,BKN250,0.00,VWS V14.01,2013-02-07 08:16:00,
2013-02-07 02:21:00,48.0,38.0,30.05,SE,138,5.0,5.0,68,0.00,,BKN250,0.00,VWS V14.01,2013-02-07 08:21:00,
2013-02-07 02:26:00,48.2,37.8,30.04,SSE,167,0.0,1.0,67,0.00,,BKN250,0.00,VWS V14.01,2013-02-07 08:26:00,
2013-02-07 02:31:00,48.4,38.0,30.05,ESE,116,1.0,1.0,67,0.00,,BKN250,0.00,VWS V14.01,2013-02-07 08:31:00,
2013-02-07 02:36:00,48.4,38.0,30.05,ESE,110,0.0,0.0,67,0.00,,BKN250,0.00,VWS V14.01,2013-02-07 08:36:00,
2013-02-07 02:41:00,48.2,37.8,30.05,East,101,0.0,0.0,67,0.00,,BKN250,0.00,VWS V14.01,2013-02-07 08:41:00,
2013-02-07 02:46:00,47.8,37.8,30.05,East,101,0.0,0.0,68,0.00,,BKN250,0.00,VWS V14.01,2013-02-07 08:46:00,
2013-02-07 02:51:00,47.2,37.6,30.05,East,101,0.0,0.0,69,0.00,,BKN250,0.00,VWS V14.01,2013-02-07 08:51:00,
2013-02-07 02:56:00,46.7,37.5,30.04,East,101,0.0,0.0,70,0.00,,BKN250,0.00,VWS V14.01,2013-02-07 08:56:00,
2013-02-07 03:01:00,46.4,37.5,30.04,East,101,0.0,0.0,71,0.00,,BKN250,0.00,VWS V14.01,2013-02-07 09:01:00,
2013-02-07 03:06:00,45.9,37.4,30.04,East,101,0.0,0.0,72,0.00,,SCT055,0.00,VWS V14.01,2013-02-07 09:06:00,
2013-02-07 03:11:00,45.4,37.6,30.04,ESE,110,0.0,0.0,74,0.00,,SCT055,0.00,VWS V14.01,2013-02-07 09:11:00,
2013-02-07 03:16:00,45.3,37.5,30.04,ESE,110,0.0,0.0,74,0.00,,SCT055,0.00,VWS V14.01,2013-02-07 09:16:00,
2013-02-07 03:21:00,45.1,37.7,30.04,ESE,110,0.0,0.0,75,0.00,,SCT055,0.00,VWS V14.01,2013-02-07 09:21:00,
2013-02-07 03:26:00,44.6,37.5,30.04,ESE,110,0.0,0.0,76,0.00,,SCT055,0.00,VWS V14.01,2013-02-07 09:26:00,
2013-02-07 03:31:00,44.3,37.6,30.04,ESE,110,0.0,0.0,77,0.00,,SCT055,0.00,VWS V14.01,2013-02-07 09:31:00,
2013-02-07 03:36:00,44.1,37.7,30.03,ESE,110,0.0,0.0,78,0.00,,SCT055,0.00,VWS V14.01,2013-02-07 09:36:00,
2013-02-07 03:41:00,43.9,37.5,30.03,ESE,110,0.0,0.0,78,0.00,,SCT055,0.00,VWS V14.01,2013-02-07 09:41:00,
2013-02-07 03:46:00,43.6,37.5,30.03,ESE,110,0.0,0.0,79,0.00,,SCT055,0.00,VWS V14.01,2013-02-07 09:46:00,
2013-02-07 03:51:00,43.4,37.3,30.03,ESE,110,0.0,0.0,79,0.00,,SCT055,0.00,VWS V14.01,2013-02-07 09:51:00,
2013-02-07 03:56:00,43.4,37.3,30.03,ESE,110,0.0,0.0,79,0.00,,SCT055,0.00,VWS V14.01,2013-02-07 09:56:00,
2013-02-07 04:01:00,43.4,37.3,30.03,ESE,110,0.0,0.0,79,0.00,,SCT055,0.00,VWS V14.01,2013-02-07 10:01:00,
2013-02-07 04:06:00,43.3,37.2,30.03,ESE,110,0.0,0.0,79,0.00,,CLR,0.00,VWS V14.01,2013-02-07 10:06:00,
2013-02-07 04:11:00,43.1,37.0,30.03,ESE,110,0.0,0.0,79,0.00,,CLR,0.00,VWS V14.01,2013-02-07 10:11:00,
2013-02-07 04:16:00,43.0,36.9,30.03,ESE,110,0.0,0.0,79,0.00,,CLR,0.00,VWS V14.01,2013-02-07 10:16:00,
2013-02-07 04:21:00,42.8,37.4,30.03,ESE,110,0.0,0.0,81,0.00,,CLR,0.00,VWS V14.01,2013-02-07 10:21:00,
2013-02-07 04:26:00,42.4,37.3,30.03,ESE,110,0.0,0.0,82,0.00,,CLR,0.00,VWS V14.01,2013-02-07 10:26:00,
2013-02-07 04:31:00,42.3,37.5,30.02,ESE,110,0.0,0.0,83,0.00,,CLR,0.00,VWS V14.01,2013-02-07 10:31:00,
2013-02-07 04:36:00,42.2,37.4,30.02,ESE,110,0.0,0.0,83,0.00,,CLR,0.00,VWS V14.01,2013-02-07 10:36:00,
2013-02-07 04:41:00,42.1,37.6,30.02,ESE,110,0.0,0.0,84,0.00,,CLR,0.00,VWS V14.01,2013-02-07 10:41:00,
2013-02-07 04:46:00,41.9,37.1,30.02,ESE,110,0.0,0.0,83,0.00,,CLR,0.00,VWS V14.01,2013-02-07 10:46:00,
2013-02-07 04:51:00,41.9,37.1,30.02,ESE,110,0.0,0.0,83,0.00,,CLR,0.00,VWS V14.01,2013-02-07 10:51:00,
2013-02-07 04:56:00,41.9,37.1,30.02,ESE,110,0.0,0.0,83,0.00,,CLR,0.00,VWS V14.01,2013-02-07 10:56:00,
2013-02-07 05:01:00,42.0,36.9,30.01,ESE,110,0.0,0.0,82,0.00,,CLR,0.00,VWS V14.01,2013-02-07 11:01:00,
2013-02-07 05:06:00,41.9,37.1,30.01,ESE,110,0.0,0.0,83,0.00,,FEW110,0.00,VWS V14.01,2013-02-07 11:06:00,
2013-02-07 05:11:00,41.9,37.1,30.01,ESE,110,0.0,1.0,83,0.00,,FEW110,0.00,VWS V14.01,2013-02-07 11:11:00,
2013-02-07 05:16:00,41.9,37.1,30.00,ESE,110,0.0,0.0,83,0.00,,FEW110,0.00,VWS V14.01,2013-02-07 11:16:00,
2013-02-07 05:21:00,41.9,37.1,30.00,ESE,110,0.0,0.0,83,0.00,,FEW110,0.00,VWS V14.01,2013-02-07 11:21:00,
2013-02-07 05:26:00,41.9,36.8,30.00,ESE,110,0.0,0.0,82,0.00,,FEW110,0.00,VWS V14.01,2013-02-07 11:26:00,
2013-02-07 05:31:00,41.8,36.7,30.00,ESE,110,0.0,0.0,82,0.00,,FEW110,0.00,VWS V14.01,2013-02-07 11:31:00,
2013-02-07 05:36:00,41.6,36.8,30.00,ESE,110,0.0,0.0,83,0.00,,FEW110,0.00,VWS V14.01,2013-02-07 11:36:00,
2013-02-07 05:41:00,41.3,36.8,30.00,ESE,110,0.0,0.0,84,0.00,,FEW110,0.00,VWS V14.01,2013-02-07 11:41:00,
2013-02-07 05:46:00,41.1,36.6,30.00,ESE,110,0.0,0.0,84,0.00,,FEW110,0.00,VWS V14.01,2013-02-07 11:46:00,
2013-02-07 05:51:00,41.0,36.5,30.00,ESE,110,0.0,0.0,84,0.00,,FEW110,0.00,VWS V14.01,2013-02-07 11:51:00,
2013-02-07 05:56:00,40.8,36.7,30.00,ESE,110,0.0,0.0,85,0.00,,FEW110,0.00,VWS V14.01,2013-02-07 11:56:00,
2013-02-07 06:01:00,40.7,36.5,30.00,ESE,110,0.0,0.0,85,0.00,,FEW110,0.00,VWS V14.01,2013-02-07 12:01:00,
2013-02-07 06:06:00,40.7,36.5,30.00,ESE,110,0.0,0.0,85,0.00,,SCT150,0.00,VWS V14.01,2013-02-07 12:06:00,
2013-02-07 06:11:00,40.8,36.7,30.00,ESE,110,0.0,0.0,85,0.00,,SCT150,0.00,VWS V14.01,2013-02-07 12:11:00,
2013-02-07 06:16:00,40.8,36.7,30.00,ESE,110,0.0,0.0,85,0.00,,SCT150,0.00,VWS V14.01,2013-02-07 12:16:00,
2013-02-07 06:21:00,40.8,36.7,30.00,ESE,110,0.0,0.0,85,0.00,,SCT150,0.00,VWS V14.01,2013-02-07 12:21:00,
2013-02-07 06:26:00,40.7,36.8,30.00,ESE,110,0.0,0.0,86,0.00,,SCT150,0.00,VWS V14.01,2013-02-07 12:26:00,
2013-02-07 06:31:00,40.8,36.9,30.00,ESE,122,0.0,0.0,86,0.00,,SCT150,0.00,VWS V14.01,2013-02-07 12:31:00,
2013-02-07 06:36:00,41.0,37.1,30.00,ESE,106,1.0,1.0,86,0.00,,SCT150,0.00,VWS V14.01,2013-02-07 12:36:00,
2013-02-07 06:41:00,41.2,37.6,30.00,ESE,105,0.0,1.0,87,0.00,,SCT150,0.00,VWS V14.01,2013-02-07 12:41:00,
2013-02-07 06:46:00,41.5,37.9,30.00,East,101,0.0,0.0,87,0.00,,SCT150,0.00,VWS V14.01,2013-02-07 12:46:00,
2013-02-07 06:51:00,41.8,37.9,29.99,ESE,102,1.0,1.0,86,0.00,,SCT150,0.00,VWS V14.01,2013-02-07 12:51:00,
2013-02-07 06:56:00,42.0,37.8,29.99,ESE,102,0.0,0.0,85,0.00,,SCT150,0.00,VWS V14.01,2013-02-07 12:56:00,
2013-02-07 07:01:00,42.3,38.1,29.99,ESE,119,0.0,0.0,85,0.00,,SCT150,0.00,VWS V14.01,2013-02-07 13:01:00,
2013-02-07 07:06:00,42.6,38.4,29.99,ESE,119,0.0,0.0,85,0.00,,BKN100,0.00,VWS V14.01,2013-02-07 13:06:00,
2013-02-07 07:11:00,43.0,38.8,29.99,SSE,150,0.0,0.0,85,0.00,,BKN100,0.00,VWS V14.01,2013-02-07 13:11:00,
2013-02-07 07:16:00,43.9,40.0,30.00,SSE,152,0.0,0.0,86,0.00,,BKN100,0.00,VWS V14.01,2013-02-07 13:16:00,
2013-02-07 07:21:00,45.0,41.1,29.99,South,190,0.0,1.0,86,0.00,,BKN100,0.00,VWS V14.01,2013-02-07 13:21:00,
2013-02-07 07:26:00,46.8,43.1,29.99,South,171,0.0,3.0,87,0.00,,BKN100,0.00,VWS V14.01,2013-02-07 13:26:00,
2013-02-07 07:31:00,48.3,44.0,29.99,South,182,1.0,1.0,85,0.00,,BKN100,0.00,VWS V14.01,2013-02-07 13:31:00,
2013-02-07 07:36:00,49.2,44.6,29.99,South,169,0.0,1.0,84,0.00,,BKN100,0.00,VWS V14.01,2013-02-07 13:36:00,
2013-02-07 07:41:00,49.9,45.0,29.99,SSE,162,2.0,3.0,83,0.00,,BKN100,0.00,VWS V14.01,2013-02-07 13:41:00,
2013-02-07 07:46:00,50.2,44.9,29.99,South,175,1.0,1.0,82,0.00,,BKN100,0.00,VWS V14.01,2013-02-07 13:46:00,
2013-02-07 07:51:00,50.6,45.3,30.00,SSE,167,1.0,1.0,82,0.00,,BKN100,0.00,VWS V14.01,2013-02-07 13:51:00,
2013-02-07 07:56:00,51.8,46.2,30.00,SSE,166,1.0,1.0,81,0.00,,BKN100,0.00,VWS V14.01,2013-02-07 13:56:00,
2013-02-07 08:01:00,53.1,46.8,30.00,South,188,1.0,1.0,79,0.00,,BKN100,0.00,VWS V14.01,2013-02-07 14:01:00,
2013-02-07 08:06:00,53.9,47.5,29.99,SW,217,1.0,1.0,79,0.00,,OVC100,0.00,VWS V14.01,2013-02-07 14:06:00,
2013-02-07 08:11:00,54.6,47.5,29.99,SSW,211,4.0,4.0,77,0.00,,OVC100,0.00,VWS V14.01,2013-02-07 14:11:00,
2013-02-07 08:16:00,55.2,47.8,30.00,South,186,1.0,2.0,76,0.00,,OVC100,0.00,VWS V14.01,2013-02-07 14:16:00,
2013-02-07 08:21:00,55.6,48.2,29.99,SSW,192,2.0,5.0,76,0.00,,OVC100,0.00,VWS V14.01,2013-02-07 14:21:00,
2013-02-07 08:26:00,56.2,48.8,30.00,South,175,2.0,2.0,76,0.00,,OVC100,0.00,VWS V14.01,2013-02-07 14:26:00,
2013-02-07 08:31:00,56.8,49.0,29.99,SE,134,2.0,4.0,75,0.00,,OVC100,0.00,VWS V14.01,2013-02-07 14:31:00,
2013-02-07 08:36:00,57.2,49.0,29.99,SSE,150,3.0,7.0,74,0.00,,OVC100,0.00,VWS V14.01,2013-02-07 14:36:00,
2013-02-07 08:41:00,57.1,48.9,29.99,South,190,4.0,6.0,74,0.00,,OVC100,0.00,VWS V14.01,2013-02-07 14:41:00,
2013-02-07 08:46:00,57.4,49.2,29.99,SSW,194,2.0,3.0,74,0.00,,OVC100,0.00,VWS V14.01,2013-02-07 14:46:00,
2013-02-07 08:51:00,57.7,49.5,29.99,SE,132,1.0,2.0,74,0.00,,OVC100,0.00,VWS V14.01,2013-02-07 14:51:00,
2013-02-07 08:56:00,57.8,49.2,29.99,South,184,1.0,1.0,73,0.00,,OVC100,0.00,VWS V14.01,2013-02-07 14:56:00,
2013-02-07 09:01:00,58.2,49.2,29.99,SE,146,3.0,4.0,72,0.00,,OVC100,0.00,VWS V14.01,2013-02-07 15:01:00,
2013-02-07 09:06:00,58.5,49.9,29.99,SSW,193,7.0,7.0,73,0.00,,BKN250,0.00,VWS V14.01,2013-02-07 15:06:00,
2013-02-07 09:11:00,58.8,49.8,29.99,SSE,163,2.0,5.0,72,0.00,,BKN250,0.00,VWS V14.01,2013-02-07 15:11:00,
2013-02-07 09:16:00,59.1,50.1,29.99,South,189,5.0,6.0,72,0.00,,BKN250,0.00,VWS V14.01,2013-02-07 15:16:00,
2013-02-07 09:21:00,59.4,50.4,29.99,SSE,165,7.0,8.0,72,0.00,,BKN250,0.00,VWS V14.01,2013-02-07 15:21:00,
2013-02-07 09:26:00,59.8,50.4,29.99,South,190,0.0,3.0,71,0.00,,BKN250,0.00,VWS V14.01,2013-02-07 15:26:00,
2013-02-07 09:31:00,60.4,50.6,29.99,SE,144,6.0,10.0,70,0.00,,BKN250,0.00,VWS V14.01,2013-02-07 15:31:00,
2013-02-07 09:36:00,60.3,50.9,29.99,SW,214,7.0,7.0,71,0.00,,BKN250,0.00,VWS V14.01,2013-02-07 15:36:00,
2013-02-07 09:41:00,60.5,51.1,29.99,SSW,204,3.0,5.0,71,0.00,,BKN250,0.00,VWS V14.01,2013-02-07 15:41:00,
2013-02-07 09:46:00,60.7,50.9,29.99,South,174,7.0,7.0,70,0.00,,BKN250,0.00,VWS V14.01,2013-02-07 15:46:00,
2013-02-07 09:51:00,61.1,51.2,29.99,SSW,213,0.0,4.0,70,0.00,,BKN250,0.00,VWS V14.01,2013-02-07 15:51:00,
2013-02-07 09:56:00,61.6,51.3,29.99,SSE,150,0.0,1.0,69,0.00,,BKN250,0.00,VWS V14.01,2013-02-07 15:56:00,
2013-02-07 10:01:00,61.8,51.1,29.99,SSE,167,0.0,1.0,68,0.00,,BKN250,0.00,VWS V14.01,2013-02-07 16:01:00,
2013-02-07 10:06:00,61.7,51.0,29.99,SSE,153,5.0,5.0,68,0.00,,BKN250,0.00,VWS V14.01,2013-02-07 16:06:00,
2013-02-07 10:11:00,62.7,52.0,29.99,SSE,159,3.0,3.0,68,0.00,,BKN250,0.00,VWS V14.01,2013-02-07 16:11:00,
2013-02-07 10:16:00,63.0,51.9,29.99,SE,142,3.0,4.0,67,0.00,,BKN250,0.00,VWS V14.01,2013-02-07 16:16:00,
2013-02-07 10:21:00,62.4,51.7,29.99,SW,215,4.0,4.0,68,0.00,,BKN250,0.00,VWS V14.01,2013-02-07 16:21:00,
2013-02-07 10:26:00,62.2,51.5,29.98,SW,234,2.0,2.0,68,0.00,,BKN250,0.00,VWS V14.01,2013-02-07 16:26:00,
2013-02-07 10:31:00,62.7,52.0,29.98,SSW,209,4.0,4.0,68,0.00,,BKN250,0.00,VWS V14.01,2013-02-07 16:31:00,
2013-02-07 10:36:00,62.9,51.8,29.98,SW,215,2.0,2.0,67,0.00,,BKN250,0.00,VWS V14.01,2013-02-07 16:36:00,
2013-02-07 10:41:00,63.3,52.6,29.98,South,184,3.0,3.0,68,0.00,,BKN250,0.00,VWS V14.01,2013-02-07 16:41:00,
2013-02-07 10:46:00,64.2,52.6,29.98,South,191,1.0,3.0,66,0.00,,BKN250,0.00,VWS V14.01,2013-02-07 16:46:00,
2013-02-07 10:51:00,64.0,52.4,29.98,South,184,3.0,5.0,66,0.00,,BKN250,0.00,VWS V14.01,2013-02-07 16:51:00,
2013-02-07 10:56:00,64.0,52.4,29.98,SW,221,5.0,6.0,66,0.00,,BKN250,0.00,VWS V14.01,2013-02-07 16:56:00,
2013-02-07 11:01:00,63.6,52.5,29.99,SW,214,1.0,2.0,67,0.00,,BKN250,0.00,VWS V14.01,2013-02-07 17:01:00,
2013-02-07 11:06:00,63.9,52.3,29.98,SW,214,6.0,6.0,66,0.00,,BKN150,0.00,VWS V14.01,2013-02-07 17:06:00,
2013-02-07 11:11:00,63.4,52.3,29.98,South,183,0.0,3.0,67,0.00,,BKN150,0.00,VWS V14.01,2013-02-07 17:11:00,
2013-02-07 11:16:00,63.2,52.5,29.98,South,170,2.0,4.0,68,0.00,,BKN150,0.00,VWS V14.01,2013-02-07 17:16:00,
2013-02-07 11:21:00,63.5,52.4,29.98,SW,231,3.0,4.0,67,0.00,,BKN150,0.00,VWS V14.01,2013-02-07 17:21:00,
2013-02-07 11:26:00,63.7,52.5,29.98,SSW,209,5.0,5.0,67,0.00,,BKN150,0.00,VWS V14.01,2013-02-07 17:26:00,
2013-02-07 11:31:00,63.4,52.3,29.98,SSW,205,3.0,4.0,67,0.00,,BKN150,0.00,VWS V14.01,2013-02-07 17:31:00,
2013-02-07 11:36:00,63.7,52.5,29.98,SW,221,0.0,0.0,67,0.00,,BKN150,0.00,VWS V14.01,2013-02-07 17:36:00,
2013-02-07 11:41:00,63.7,52.5,29.98,South,189,0.0,1.0,67,0.00,,BKN150,0.00,VWS V14.01,2013-02-07 17:41:00,
2013-02-07 11:46:00,63.5,52.4,29.98,SSW,193,3.0,4.0,67,0.00,,BKN150,0.00,VWS V14.01,2013-02-07 17:46:00,
2013-02-07 11:51:00,63.5,52.4,29.98,SW,214,0.0,1.0,67,0.00,,BKN150,0.00,VWS V14.01,2013-02-07 17:51:00,
2013-02-07 11:56:00,64.3,52.7,29.98,SSW,195,5.0,5.0,66,0.00,,BKN150,0.00,VWS V14.01,2013-02-07 17:56:00,
2013-02-07 12:01:00,64.3,52.7,29.97,SSW,194,0.0,2.0,66,0.00,,BKN150,0.00,VWS V14.01,2013-02-07 18:01:00,
2013-02-07 12:06:00,64.4,52.8,29.97,SSW,202,4.0,5.0,66,0.00,,BKN075,0.00,VWS V14.01,2013-02-07 18:06:00,
2013-02-07 12:11:00,64.4,52.8,29.97,West,277,1.0,1.0,66,0.00,,BKN075,0.00,VWS V14.01,2013-02-07 18:11:00,
2013-02-07 12:16:00,64.3,52.7,29.97,WSW,250,1.0,1.0,66,0.00,,BKN075,0.00,VWS V14.01,2013-02-07 18:16:00,
2013-02-07 12:21:00,64.5,52.9,29.97,South,178,0.0,3.0,66,0.00,,BKN075,0.00,VWS V14.01,2013-02-07 18:21:00,
2013-02-07 12:26:00,64.3,52.7,29.96,South,186,2.0,2.0,66,0.00,,BKN075,0.00,VWS V14.01,2013-02-07 18:26:00,
2013-02-07 12:31:00,64.4,52.8,29.96,SSW,213,0.0,1.0,66,0.00,,BKN075,0.00,VWS V14.01,2013-02-07 18:31:00,
2013-02-07 12:36:00,64.7,52.7,29.96,SSW,198,1.0,2.0,65,0.00,,BKN075,0.00,VWS V14.01,2013-02-07 18:36:00,
2013-02-07 12:41:00,65.1,53.1,29.95,SW,232,0.0,0.0,65,0.00,,BKN075,0.00,VWS V14.01,2013-02-07 18:41:00,
2013-02-07 12:46:00,65.9,53.4,29.95,SW,219,2.0,3.0,64,0.00,,BKN075,0.00,VWS V14.01,2013-02-07 18:46:00,
2013-02-07 12:51:00,65.4,52.9,29.95,SW,234,4.0,4.0,64,0.00,,BKN075,0.00,VWS V14.01,2013-02-07 18:51:00,
2013-02-07 12:56:00,65.4,52.9,29.95,SW,216,3.0,3.0,64,0.00,,BKN075,0.00,VWS V14.01,2013-02-07 18:56:00,
2013-02-07 13:01:00,65.5,53.0,29.95,WSW,252,0.0,6.0,64,0.00,,BKN075,0.00,VWS V14.01,2013-02-07 19:01:00,
2013-02-07 13:06:00,65.9,53.0,29.94,SW,221,3.0,5.0,63,0.00,,BKN060,0.00,VWS V14.01,2013-02-07 19:06:00,
2013-02-07 13:11:00,65.7,53.2,29.94,SW,220,0.0,1.0,64,0.00,,BKN060,0.00,VWS V14.01,2013-02-07 19:11:00,
2013-02-07 13:16:00,66.2,53.2,29.94,SSE,159,1.0,3.0,63,0.00,,BKN060,0.00,VWS V14.01,2013-02-07 19:16:00,
2013-02-07 13:21:00,66.2,53.2,29.94,SW,234,2.0,3.0,63,0.00,,BKN060,0.00,VWS V14.01,2013-02-07 19:21:00,
2013-02-07 13:26:00,66.0,52.6,29.93,SW,221,7.0,7.0,62,0.00,,BKN060,0.00,VWS V14.01,2013-02-07 19:26:00,
2013-02-07 13:31:00,65.8,52.9,29.93,SSW,200,3.0,3.0,63,0.00,,BKN060,0.00,VWS V14.01,2013-02-07 19:31:00,
2013-02-07 13:36:00,66.5,53.5,29.93,SSW,196,2.0,2.0,63,0.00,,BKN060,0.00,VWS V14.01,2013-02-07 19:36:00,
2013-02-07 13:41:00,67.9,53.5,29.92,NW,308,0.0,0.0,60,0.00,,BKN060,0.00,VWS V14.01,2013-02-07 19:41:00,
2013-02-07 13:46:00,67.7,52.9,29.92,SW,218,1.0,4.0,59,0.00,,BKN060,0.00,VWS V14.01,2013-02-07 19:46:00,
2013-02-07 13:51:00,67.2,52.4,29.92,WNW,286,2.0,4.0,59,0.00,,BKN060,0.00,VWS V14.01,2013-02-07 19:51:00,
2013-02-07 13:56:00,67.4,52.6,29.91,SW,214,3.0,5.0,59,0.00,,BKN060,0.00,VWS V14.01,2013-02-07 19:56:00,
2013-02-07 14:01:00,67.5,51.8,29.91,NNW,332,5.0,5.0,57,0.00,,BKN060,0.00,VWS V14.01,2013-02-07 20:01:00,
2013-02-07 14:06:00,67.4,52.1,29.91,SW,215,8.0,8.0,58,0.00,,BKN090,0.00,VWS V14.01,2013-02-07 20:06:00,
2013-02-07 14:11:00,67.6,51.8,29.91,WNW,300,5.0,6.0,57,0.00,,BKN090,0.00,VWS V14.01,2013-02-07 20:11:00,
2013-02-07 14:16:00,67.5,52.2,29.91,SW,231,2.0,7.0,58,0.00,,BKN090,0.00,VWS V14.01,2013-02-07 20:16:00,
2013-02-07 14:21:00,67.4,51.7,29.91,SSW,201,6.0,6.0,57,0.00,,BKN090,0.00,VWS V14.01,2013-02-07 20:21:00,
2013-02-07 14:26:00,67.6,52.3,29.91,SW,225,2.0,5.0,58,0.00,,BKN090,0.00,VWS V14.01,2013-02-07 20:26:00,
2013-02-07 14:31:00,67.1,51.8,29.91,SW,220,4.0,7.0,58,0.00,,BKN090,0.00,VWS V14.01,2013-02-07 20:31:00,
2013-02-07 14:36:00,67.7,52.4,29.91,SW,231,0.0,2.0,58,0.00,,BKN090,0.00,VWS V14.01,2013-02-07 20:36:00,
2013-02-07 14:41:00,67.4,52.1,29.90,South,176,3.0,3.0,58,0.00,,BKN090,0.00,VWS V14.01,2013-02-07 20:41:00,
2013-02-07 14:46:00,67.3,52.0,29.90,SW,234,1.0,5.0,58,0.00,,BKN090,0.00,VWS V14.01,2013-02-07 20:46:00,
2013-02-07 14:51:00,67.2,52.4,29.90,SW,223,4.0,4.0,59,0.00,,BKN090,0.00,VWS V14.01,2013-02-07 20:51:00,
2013-02-07 14:56:00,68.1,53.2,29.90,NW,320,2.0,2.0,59,0.00,,BKN090,0.00,VWS V14.01,2013-02-07 20:56:00,
2013-02-07 15:01:00,69.3,53.4,29.90,WSW,252,3.0,4.0,57,0.00,,BKN090,0.00,VWS V14.01,2013-02-07 21:01:00,
2013-02-07 15:06:00,68.9,53.1,29.90,WNW,295,3.0,4.0,57,0.00,,BKN090,0.00,VWS V14.01,2013-02-07 21:06:00,
2013-02-07 15:11:00,69.4,53.0,29.90,WSW,256,1.0,4.0,56,0.00,,BKN090,0.00,VWS V14.01,2013-02-07 21:11:00,
2013-02-07 15:16:00,68.2,52.9,29.89,SSE,155,0.0,2.0,58,0.00,,BKN090,0.00,VWS V14.01,2013-02-07 21:16:00,
2013-02-07 15:21:00,67.5,52.7,29.90,SW,227,3.0,6.0,59,0.00,,BKN090,0.00,VWS V14.01,2013-02-07 21:21:00,
2013-02-07 15:26:00,67.2,52.4,29.89,WNW,288,3.0,4.0,59,0.00,,BKN090,0.00,VWS V14.01,2013-02-07 21:26:00,
2013-02-07 15:31:00,67.2,52.4,29.90,SW,225,4.0,5.0,59,0.00,,BKN090,0.00,VWS V14.01,2013-02-07 21:31:00,
2013-02-07 15:36:00,66.9,52.6,29.89,SSW,211,0.0,1.0,60,0.00,,BKN090,0.00,VWS V14.01,2013-02-07 21:36:00,
2013-02-07 15:41:00,66.8,52.5,29.89,SW,218,2.0,2.0,60,0.00,,BKN090,0.00,VWS V14.01,2013-02-07 21:41:00,
2013-02-07 15:46:00,66.9,52.6,29.89,WSW,240,0.0,1.0,60,0.00,,BKN090,0.00,VWS V14.01,2013-02-07 21:46:00,
2013-02-07 15:51:00,66.9,52.6,29.90,WNW,296,2.0,3.0,60,0.00,,BKN090,0.00,VWS V14.01,2013-02-07 21:51:00,
2013-02-07 15:56:00,66.7,52.4,29.90,West,270,5.0,5.0,60,0.00,,BKN090,0.00,VWS V14.01,2013-02-07 21:56:00,
2013-02-07 16:01:00,66.7,52.4,29.90,WNW,293,3.0,3.0,60,0.00,,BKN090,0.00,VWS V14.01,2013-02-07 22:01:00,
2013-02-07 16:06:00,66.7,52.8,29.90,WNW,295,1.0,1.0,61,0.00,,BKN090,0.00,VWS V14.01,2013-02-07 22:06:00,
2013-02-07 16:11:00,66.7,52.8,29.90,SW,221,3.0,3.0,61,0.00,,BKN090,0.00,VWS V14.01,2013-02-07 22:11:00,
2013-02-07 16:16:00,66.7,52.8,29.89,NW,307,0.0,1.0,61,0.00,,BKN090,0.00,VWS V14.01,2013-02-07 22:16:00,
2013-02-07 16:21:00,66.7,52.8,29.89,SW,236,2.0,2.0,61,0.00,,BKN090,0.00,VWS V14.01,2013-02-07 22:21:00,
2013-02-07 16:26:00,66.5,53.1,29.89,West,272,0.0,0.0,62,0.00,,BKN090,0.00,VWS V14.01,2013-02-07 22:26:00,
2013-02-07 16:31:00,66.3,52.9,29.90,WNW,296,0.0,0.0,62,0.00,,BKN090,0.00,VWS V14.01,2013-02-07 22:31:00,
2013-02-07 16:36:00,66.2,52.8,29.89,WNW,286,0.0,0.0,62,0.00,,BKN090,0.00,VWS V14.01,2013-02-07 22:36:00,
2013-02-07 16:41:00,66.0,53.1,29.90,WNW,286,2.0,4.0,63,0.00,,BKN090,0.00,VWS V14.01,2013-02-07 22:41:00,
2013-02-07 16:46:00,65.6,53.1,29.90,West,263,1.0,4.0,64,0.00,,BKN090,0.00,VWS V14.01,2013-02-07 22:46:00,
2013-02-07 16:51:00,65.3,53.2,29.90,WNW,286,1.0,1.0,65,0.00,,BKN090,0.00,VWS V14.01,2013-02-07 22:51:00,
2013-02-07 16:56:00,65.0,53.0,29.90,WNW,294,3.0,6.0,65,0.00,,BKN090,0.00,VWS V14.01,2013-02-07 22:56:00,
2013-02-07 17:01:00,64.8,53.2,29.90,WNW,291,1.0,2.0,66,0.00,,BKN090,0.00,VWS V14.01,2013-02-07 23:01:00,
2013-02-07 17:06:00,64.7,53.1,29.90,WNW,297,1.0,1.0,66,0.00,,BKN090,0.00,VWS V14.01,2013-02-07 23:06:00,
2013-02-07 17:11:00,64.5,53.3,29.90,West,281,2.0,3.0,67,0.00,,BKN090,0.00,VWS V14.01,2013-02-07 23:11:00,
2013-02-07 17:16:00,64.4,53.2,29.90,WNW,284,0.0,2.0,67,0.00,,BKN090,0.00,VWS V14.01,2013-02-07 23:16:00,
2013-02-07 17:21:00,64.2,53.4,29.91,WNW,294,2.0,3.0,68,0.00,,BKN090,0.00,VWS V14.01,2013-02-07 23:21:00,
2013-02-07 17:26:00,64.1,53.3,29.91,West,280,2.0,4.0,68,0.00,,BKN090,0.00,VWS V14.01,2013-02-07 23:26:00,
2013-02-07 17:31:00,63.9,53.5,29.91,WNW,282,0.0,2.0,69,0.00,,BKN090,0.00,VWS V14.01,2013-02-07 23:31:00,
2013-02-07 17:36:00,63.8,53.5,29.91,WNW,282,3.0,5.0,69,0.00,,BKN090,0.00,VWS V14.01,2013-02-07 23:36:00,
2013-02-07 17:41:00,63.6,53.7,29.91,WNW,284,4.0,4.0,70,0.00,,BKN090,0.00,VWS V14.01,2013-02-07 23:41:00,
2013-02-07 17:46:00,63.5,53.9,29.91,West,274,3.0,3.0,71,0.00,,BKN090,0.00,VWS V14.01,2013-02-07 23:46:00,
2013-02-07 17:51:00,63.4,53.8,29.91,WNW,286,0.0,1.0,71,0.00,,BKN090,0.00,VWS V14.01,2013-02-07 23:51:00,
2013-02-07 17:56:00,63.2,54.0,29.91,West,275,0.0,2.0,72,0.00,,BKN090,0.00,VWS V14.01,2013-02-07 23:56:00,
2013-02-07 18:01:00,63.2,54.0,29.91,West,267,1.0,1.0,72,0.00,,BKN090,0.00,VWS V14.01,2013-02-08 00:01:00,
2013-02-07 18:06:00,63.1,53.9,29.91,WNW,283,2.0,2.0,72,0.00,,BKN090,0.00,VWS V14.01,2013-02-08 00:06:00,
2013-02-07 18:11:00,63.1,54.3,29.92,WNW,292,1.0,2.0,73,0.00,,BKN090,0.00,VWS V14.01,2013-02-08 00:11:00,
2013-02-07 18:16:00,63.1,54.3,29.92,West,273,2.0,4.0,73,0.00,,BKN090,0.00,VWS V14.01,2013-02-08 00:16:00,
2013-02-07 18:21:00,63.0,54.2,29.92,WNW,285,0.0,0.0,73,0.00,,BKN090,0.00,VWS V14.01,2013-02-08 00:21:00,
2013-02-07 18:26:00,62.9,54.1,29.92,WNW,294,1.0,1.0,73,0.00,,BKN090,0.00,VWS V14.01,2013-02-08 00:26:00,
2013-02-07 18:31:00,62.8,54.0,29.92,West,281,0.0,3.0,73,0.00,,BKN090,0.00,VWS V14.01,2013-02-08 00:31:00,
2013-02-07 18:36:00,62.8,54.4,29.92,West,275,2.0,4.0,74,0.00,,BKN090,0.00,VWS V14.01,2013-02-08 00:36:00,
2013-02-07 18:41:00,62.7,54.3,29.92,WNW,285,2.0,2.0,74,0.00,,BKN090,0.00,VWS V14.01,2013-02-08 00:41:00,
2013-02-07 18:46:00,62.6,54.2,29.92,West,276,0.0,2.0,74,0.00,,BKN090,0.00,VWS V14.01,2013-02-08 00:46:00,
2013-02-07 18:51:00,62.5,54.1,29.92,West,269,0.0,0.0,74,0.00,,BKN090,0.00,VWS V14.01,2013-02-08 00:51:00,
2013-02-07 18:56:00,62.5,54.1,29.91,WSW,257,0.0,0.0,74,0.00,,BKN090,0.00,VWS V14.01,2013-02-08 00:56:00,
2013-02-07 19:01:00,62.4,54.4,29.91,WSW,257,0.0,0.0,75,0.00,,BKN090,0.00,VWS V14.01,2013-02-08 01:01:00,
2013-02-07 19:06:00,62.3,54.3,29.91,WSW,257,0.0,0.0,75,0.00,,OVC050,0.00,VWS V14.01,2013-02-08 01:06:00,
2013-02-07 19:11:00,62.3,54.3,29.91,WSW,257,0.0,0.0,75,0.00,,OVC050,0.00,VWS V14.01,2013-02-08 01:11:00,
2013-02-07 19:16:00,62.1,54.1,29.91,WSW,257,0.0,0.0,75,0.00,,OVC050,0.00,VWS V14.01,2013-02-08 01:16:00,
2013-02-07 19:21:00,62.0,54.4,29.91,WSW,257,0.0,0.0,76,0.00,,OVC050,0.00,VWS V14.01,2013-02-08 01:21:00,
2013-02-07 19:26:00,62.0,54.4,29.91,WSW,257,0.0,0.0,76,0.00,,OVC050,0.00,VWS V14.01,2013-02-08 01:26:00,
2013-02-07 19:31:00,61.9,54.3,29.91,WSW,257,0.0,0.0,76,0.00,,OVC050,0.00,VWS V14.01,2013-02-08 01:31:00,
2013-02-07 19:36:00,61.8,54.2,29.91,WSW,257,0.0,0.0,76,0.00,,OVC050,0.00,VWS V14.01,2013-02-08 01:36:00,
2013-02-07 19:41:00,61.7,54.4,29.91,WSW,257,1.0,1.0,77,0.00,,OVC050,0.00,VWS V14.01,2013-02-08 01:41:00,
2013-02-07 19:46:00,61.6,54.3,29.91,WSW,257,0.0,0.0,77,0.00,,OVC050,0.00,VWS V14.01,2013-02-08 01:46:00,
2013-02-07 19:51:00,61.5,54.6,29.90,WSW,257,0.0,0.0,78,0.00,,OVC050,0.00,VWS V14.01,2013-02-08 01:51:00,
2013-02-07 19:56:00,61.4,54.5,29.90,WSW,257,0.0,0.0,78,0.00,,OVC050,0.00,VWS V14.01,2013-02-08 01:56:00,
2013-02-07 20:01:00,61.4,54.5,29.90,WSW,257,0.0,0.0,78,0.00,,OVC050,0.00,VWS V14.01,2013-02-08 02:01:00,
2013-02-07 20:06:00,61.4,54.5,29.90,South,178,0.0,1.0,78,0.00,,OVC050,0.00,VWS V14.01,2013-02-08 02:06:00,
2013-02-07 20:11:00,61.3,54.4,29.90,South,178,1.0,1.0,78,0.00,,OVC050,0.00,VWS V14.01,2013-02-08 02:11:00,
2013-02-07 20:16:00,61.0,54.5,29.89,South,176,0.0,1.0,79,0.00,,OVC050,0.00,VWS V14.01,2013-02-08 02:16:00,
2013-02-07 20:21:00,60.6,54.1,29.89,South,176,0.0,0.0,79,0.00,,OVC050,0.00,VWS V14.01,2013-02-08 02:21:00,
2013-02-07 20:26:00,60.2,54.0,29.90,South,176,0.0,0.0,80,0.00,,OVC050,0.00,VWS V14.01,2013-02-08 02:26:00,
2013-02-07 20:31:00,59.5,53.3,29.90,South,176,0.0,0.0,80,0.00,,OVC050,0.00,VWS V14.01,2013-02-08 02:31:00,
2013-02-07 20:36:00,59.0,53.2,29.91,South,176,0.0,0.0,81,0.00,,OVC050,0.00,VWS V14.01,2013-02-08 02:36:00,
2013-02-07 20:41:00,58.8,53.3,29.91,South,176,0.0,0.0,82,0.00,,OVC050,0.00,VWS V14.01,2013-02-08 02:41:00,
2013-02-07 20:46:00,58.7,53.6,29.91,South,176,0.0,0.0,83,0.00,,OVC050,0.00,VWS V14.01,2013-02-08 02:46:00,
2013-02-07 20:51:00,58.6,53.5,29.91,South,176,0.0,0.0,83,0.00,,OVC050,0.00,VWS V14.01,2013-02-08 02:51:00,
2013-02-07 20:56:00,58.6,53.5,29.91,South,176,0.0,0.0,83,0.00,,OVC050,0.00,VWS V14.01,2013-02-08 02:56:00,
2013-02-07 21:01:00,58.7,53.6,29.91,South,176,0.0,0.0,83,0.00,,OVC050,0.00,VWS V14.01,2013-02-08 03:01:00,
2013-02-07 21:06:00,58.8,53.7,29.91,South,176,0.0,0.0,83,0.00,,OVC050,0.00,VWS V14.01,2013-02-08 03:06:00,
2013-02-07 21:11:00,58.9,53.8,29.92,South,176,0.0,0.0,83,0.00,,OVC050,0.00,VWS V14.01,2013-02-08 03:11:00,
2013-02-07 21:16:00,58.9,53.8,29.91,South,176,0.0,0.0,83,0.00,,OVC050,0.00,VWS V14.01,2013-02-08 03:16:00,
2013-02-07 21:21:00,58.9,53.8,29.92,South,176,0.0,0.0,83,0.00,,OVC050,0.00,VWS V14.01,2013-02-08 03:21:00,
2013-02-07 21:26:00,58.9,53.8,29.92,South,176,0.0,0.0,83,0.00,,OVC050,0.00,VWS V14.01,2013-02-08 03:26:00,
2013-02-07 21:31:00,58.9,53.8,29.92,South,176,0.0,0.0,83,0.00,,OVC050,0.00,VWS V14.01,2013-02-08 03:31:00,
2013-02-07 21:36:00,58.8,53.7,29.92,South,176,0.0,0.0,83,0.00,,OVC050,0.00,VWS V14.01,2013-02-08 03:36:00,
2013-02-07 21:41:00,58.7,53.6,29.92,NW,323,0.0,0.0,83,0.00,,OVC050,0.00,VWS V14.01,2013-02-08 03:41:00,
2013-02-07 21:46:00,58.7,53.9,29.92,NW,323,0.0,0.0,84,0.00,,OVC050,0.00,VWS V14.01,2013-02-08 03:46:00,
2013-02-07 21:51:00,58.7,53.9,29.92,WNW,288,0.0,0.0,84,0.00,,OVC050,0.00,VWS V14.01,2013-02-08 03:51:00,
2013-02-07 21:56:00,58.7,54.2,29.93,WNW,290,1.0,1.0,85,0.01,,OVC050,0.01,VWS V14.01,2013-02-08 03:56:00,
2013-02-07 22:01:00,58.5,54.3,29.93,WNW,296,0.0,0.0,86,0.02,,OVC050,0.02,VWS V14.01,2013-02-08 04:01:00,
2013-02-07 22:06:00,58.3,54.5,29.92,WNW,296,0.0,0.0,87,0.04,,-RA,0.04,VWS V14.01,2013-02-08 04:06:00,
2013-02-07 22:11:00,58.1,54.9,29.92,WNW,296,0.0,0.0,89,0.04,,-RA,0.04,VWS V14.01,2013-02-08 04:11:00,
2013-02-07 22:16:00,57.8,54.6,29.92,WNW,296,0.0,0.0,89,0.05,,-RA,0.05,VWS V14.01,2013-02-08 04:16:00,
2013-02-07 22:22:00,57.6,54.7,29.93,WNW,296,0.0,0.0,90,0.05,,-RA,0.05,VWS V14.01,2013-02-08 04:22:00,
2013-02-07 22:27:00,57.3,54.7,29.92,WNW,296,0.0,0.0,91,0.05,,-RA,0.05,VWS V14.01,2013-02-08 04:27:00,
2013-02-07 22:32:00,56.9,54.3,29.93,WNW,296,0.0,0.0,91,0.05,,-RA,0.05,VWS V14.01,2013-02-08 04:32:00,
2013-02-07 22:37:00,56.8,54.5,29.93,WNW,296,0.0,0.0,92,0.05,,-RA,0.05,VWS V14.01,2013-02-08 04:37:00,
2013-02-07 22:42:00,56.6,54.3,29.92,WNW,296,0.0,0.0,92,0.05,,-RA,0.05,VWS V14.01,2013-02-08 04:42:00,
2013-02-07 22:47:00,56.5,54.2,29.92,WNW,296,0.0,0.0,92,0.05,,-RA,0.05,VWS V14.01,2013-02-08 04:47:00,
2013-02-07 22:52:00,56.6,54.6,29.92,WNW,296,0.0,0.0,93,0.05,,-RA,0.05,VWS V14.01,2013-02-08 04:52:00,
2013-02-07 22:57:00,56.6,54.6,29.92,WNW,296,0.0,0.0,93,0.04,,-RA,0.05,VWS V14.01,2013-02-08 04:57:00,
2013-02-07 23:00:00,56.7,54.7,29.92,WNW,296,0.0,1.0,93,0.04,,-RA,0.05,VWS V14.01,2013-02-08 05:00:00,
2013-02-07 23:01:00,56.7,54.7,29.92,WNW,295,0.0,1.0,93,0.04,,-RA,0.05,VWS V14.01,2013-02-08 05:01:00,
2013-02-07 23:07:00,56.7,54.7,29.92,WNW,295,0.0,0.0,93,0.01,,-RA,0.05,VWS V14.01,2013-02-08 05:07:00,
2013-02-07 23:12:00,56.6,54.6,29.92,WNW,295,0.0,0.0,93,0.01,,-RA,0.05,VWS V14.01,2013-02-08 05:12:00,
2013-02-07 23:17:00,56.6,54.6,29.92,WNW,295,0.0,1.0,93,0.01,,-RA,0.06,VWS V14.01,2013-02-08 05:17:00,
2013-02-07 23:22:00,56.5,54.5,29.92,WNW,295,0.0,0.0,93,0.01,,-RA,0.06,VWS V14.01,2013-02-08 05:22:00,
2013-02-07 23:27:00,56.6,54.6,29.93,WNW,295,0.0,0.0,93,0.03,,-RA,0.08,VWS V14.01,2013-02-08 05:27:00,
2013-02-07 23:32:00,56.6,54.9,29.92,WNW,295,0.0,0.0,94,0.05,,-RA,0.10,VWS V14.01,2013-02-08 05:32:00,
2013-02-07 23:37:00,56.7,55.0,29.92,WNW,295,0.0,0.0,94,0.07,,-RA,0.12,VWS V14.01,2013-02-08 05:37:00,
2013-02-07 23:42:00,56.7,55.0,29.93,WNW,295,0.0,0.0,94,0.07,,-RA,0.12,VWS V14.01,2013-02-08 05:42:00,
2013-02-07 23:47:00,56.8,55.1,29.93,WNW,295,0.0,0.0,94,0.07,,-RA,0.12,VWS V14.01,2013-02-08 05:47:00,
2013-02-07 23:52:00,56.8,55.1,29.93,WNW,295,0.0,0.0,94,0.07,,-RA,0.12,VWS V14.01,2013-02-08 05:52:00,
2013-02-07 23:57:00,56.7,55.0,29.93,NNW,340,0.0,2.0,94,0.10,,-RA,0.15,VWS V14.01,2013-02-08 05:57:00,